This is the latest recevied weather packets stored in our database for station/object K6CED. If no packets are shown the sender has not sent any weather packets the latest 10 day(s).
| Time | Temp. | Humidity | Pressure | Rain* | Wind** | Luminosity | Snow |
|---|---|---|---|---|---|---|---|
| 1788653135 | 33.33° C | 34% | 1015 hPa | 0 mm | - | 328 W/m² | - |
| 1788652830 | 33.33° C | 35% | 1015.1 hPa | 0 mm | - | 183 W/m² | - |
| 1788652523 | 33.33° C | 34% | 1014.8 hPa | 0 mm | - | 302 W/m² | - |
| 1788652219 | 33.33° C | 35% | 1015 hPa | 0 mm | - | 229 W/m² | - |
| 1788651915 | 32.78° C | 35% | 1014.8 hPa | 0 mm | - | 279 W/m² | - |
| 1788651609 | 32.78° C | 35% | 1014.9 hPa | 0 mm | - | 255 W/m² | - |
| 1788651304 | 32.22° C | 35% | 1015 hPa | 0 mm | - | 177 W/m² | - |
| 1788651040 | 32.22° C | 35% | 1014.9 hPa | 0 mm | - | 172 W/m² | - |
| 1788650699 | 32.78° C | 34% | 1015 hPa | 0 mm | - | 257 W/m² | - |
| 1788650395 | 32.78° C | 34% | 1014.9 hPa | 0 mm | - | 194 W/m² | - |
| 1788650090 | 32.78° C | 35% | 1014.8 hPa | 0 mm | - | 395 W/m² | - |
| 1788649787 | 32.22° C | 34% | 1015 hPa | 0 mm | - | 144 W/m² | - |
| 1788649485 | 32.22° C | 34% | 1015 hPa | 0 mm | - | 253 W/m² | - |
| 1788649183 | 32.78° C | 34% | 1014.9 hPa | 0 mm | - | 163 W/m² | - |
| 1788648878 | 32.22° C | 34% | 1015.1 hPa | 0 mm | - | 239 W/m² | - |
| 1788648573 | 32.78° C | 34% | 1015.1 hPa | 0 mm | - | 214 W/m² | - |
| 1788648269 | 32.78° C | 34% | 1015.3 hPa | 0 mm | - | 255 W/m² | - |
| 1788647963 | 32.78° C | 35% | 1015.1 hPa | 0 mm | - | 242 W/m² | - |
| 1788647660 | 32.78° C | 35% | 1015.1 hPa | 0 mm | - | 362 W/m² | - |
| 1788647355 | 32.78° C | 35% | 1015.4 hPa | 0 mm | - | 463 W/m² | - |
| 1788647055 | 32.78° C | 34% | 1015.2 hPa | 0 mm | - | 296 W/m² | - |
| 1788646750 | 32.78° C | 35% | 1015.1 hPa | 0 mm | - | 314 W/m² | - |
| 1788646447 | 32.78° C | 34% | 1015.2 hPa | 0 mm | - | 288 W/m² | - |
| 1788646142 | 32.78° C | 35% | 1015.3 hPa | 0 mm | - | 273 W/m² | - |
| 1788645838 | 32.78° C | 35% | 1015.4 hPa | 0 mm | - | 434 W/m² | - |
* Rain latest hour (hover to see other rain measurements)
** Current wind speed in m/s (hover to see current wind gust speed)